Alexandria, LA

12:01 PM CDT on August 19, 2017 (GMT -0500)
Alexandria International

Weather History for KAEX - September, 2014

Change the Weather History Date:

Friday, September 19, 2014

  Actual Average Record
Temperature  
Mean Temperature 79 °F 76 °F  
Max Temperature 89 °F 87 °F 99 °F (2005)
Min Temperature 69 °F 65 °F 45 °F (1981)
Degree Days  
Heating Degree Days 0 0  
Month to date heating degree days 0 0  
Since 1 July heating degree days 0 0  
Cooling Degree Days 14 11  
Month to date cooling degree days 268 261  
Year to date cooling degree days 2176 2248  
Growing Degree Days 29 (Base 50)    
Moisture  
Dew Point 70 °F    
Average Humidity 74    
Maximum Humidity 100    
Minimum Humidity 47    
Precipitation  
Precipitation 0.00 in 0.09 in 1.82 in (2002)
Month to date precipitation 0.87 1.56  
Year to date precipitation 32.22 37.79  
Sea Level Pressure  
Sea Level Pressure 29.93 in    
Wind  
Wind Speed 5 mph (East)    
Max Wind Speed 14 mph    
Max Gust Speed 18 mph    
Visibility 9 miles    
Events      
T = Trace of Precipitation, MM = Missing Value Source: NWS Daily Summary

Daily Weather History Graph

Daily Weather History Graph

Search for Another Location

Airport or City:

Trip Planner

Search our weather history database for the weather conditions in past years. The results will help you decide how hot, cold, wet, or windy it might be!

Date:

Astronomy

Sep. 19, 2014 Rise Set
Actual Time 6:56 AM CDT 7:10 PM CDT
Civil Twilight 6:32 AM CDT 7:34 PM CDT
Nautical Twilight 6:04 AM CDT 8:03 PM CDT
Astronomical Twilight 5:35 AM CDT 8:31 PM CDT
Moon 2:55 AM CDT 4:28 PM CDT
Length of Visible Light 13h 02m
Length of Day
12h 13m
Waning Crescent, 18% of the Moon is Illuminated
Sep 19
Waning Crescent
Sep 24
New
Oct 1
First Quarter
Oct 8
Full
Oct 15
Last Quarter

Hourly Weather History & Observations

Time (CDT) Temp. Heat Index Dew Point Humidity Pressure Visibility Wind Dir Wind Speed Gust Speed Precip Events Conditions
12:37 AM 75.9 °F - 73.9 °F 94% 29.91 in 8.0 mi East 5.8 mph - N/A   Mostly Cloudy
12:53 AM 75.0 °F - 73.9 °F 96% 29.93 in 7.0 mi NNE 4.6 mph - N/A   Mostly Cloudy
1:00 AM 75.0 °F - 73.9 °F 96% 29.91 in 8.0 mi North 3.5 mph - N/A   Partly Cloudy
1:53 AM 75.0 °F - 73.0 °F 94% 29.93 in 8.0 mi East 6.9 mph - N/A   Scattered Clouds
2:10 AM 73.9 °F - 72.0 °F 93% 29.92 in 8.0 mi East 6.9 mph - N/A   Mostly Cloudy
2:22 AM 73.9 °F - 71.1 °F 91% 29.92 in 9.0 mi East 5.8 mph - N/A   Mostly Cloudy
2:37 AM 73.9 °F - 71.1 °F 91% 29.91 in 9.0 mi East 4.6 mph - N/A   Scattered Clouds
2:53 AM 73.0 °F - 71.1 °F 93% 29.91 in 8.0 mi ENE 3.5 mph - N/A   Clear
3:53 AM 71.1 °F - 69.1 °F 93% 29.90 in 10.0 mi Calm Calm - N/A   Clear
4:53 AM 70.0 °F - 69.1 °F 97% 29.89 in 6.0 mi Calm Calm - N/A   Clear
5:53 AM 69.1 °F - 68.0 °F 96% 29.90 in 6.0 mi Calm Calm - N/A   Clear
6:53 AM 70.0 °F - 68.0 °F 93% 29.93 in 7.0 mi East 4.6 mph - N/A   Clear
7:53 AM 72.0 °F - 70.0 °F 93% 29.95 in 8.0 mi Variable 5.8 mph - N/A   Scattered Clouds
8:00 AM 73.0 °F - 70.0 °F 90% 29.94 in 9.0 mi ESE 5.8 mph - N/A   Mostly Cloudy
8:16 AM 73.9 °F - 70.0 °F 87% 29.94 in 9.0 mi East 8.1 mph - N/A   Scattered Clouds
8:53 AM 75.9 °F - 70.0 °F 82% 29.96 in 10.0 mi East 8.1 mph - N/A   Clear
9:53 AM 79.0 °F - 71.1 °F 77% 29.96 in 10.0 mi SE 6.9 mph - N/A   Clear
10:53 AM 81.0 °F 85.2 °F 72.0 °F 74% 29.98 in 10.0 mi SSE 8.1 mph - N/A   Mostly Cloudy
11:32 AM 84.0 °F 89.6 °F 72.0 °F 67% 29.96 in 10.0 mi SE 8.1 mph - N/A   Partly Cloudy
11:53 AM 84.9 °F 89.4 °F 70.0 °F 61% 29.97 in 10.0 mi SE 6.9 mph - N/A   Clear
12:53 PM 88.0 °F 92.1 °F 69.1 °F 53% 29.96 in 10.0 mi ESE 9.2 mph - N/A   Mostly Cloudy
1:53 PM 87.1 °F 90.6 °F 68.0 °F 53% 29.94 in 10.0 mi East 9.2 mph - N/A   Partly Cloudy
2:53 PM 88.0 °F 91.4 °F 68.0 °F 51% 29.93 in 10.0 mi ESE 9.2 mph - N/A   Clear
3:53 PM 89.1 °F 92.1 °F 66.9 °F 48% 29.91 in 10.0 mi ESE 9.2 mph - N/A   Scattered Clouds
4:53 PM 87.1 °F 91.3 °F 69.1 °F 55% 29.91 in 10.0 mi East 4.6 mph - N/A   Clear
5:53 PM 87.1 °F 89.2 °F 66.0 °F 49% 29.91 in 10.0 mi ESE 9.2 mph - N/A   Clear
6:53 PM 82.9 °F 86.5 °F 69.1 °F 63% 29.92 in 10.0 mi ENE 4.6 mph - N/A   Clear
7:53 PM 77.0 °F - 71.1 °F 82% 29.93 in 10.0 mi ENE 4.6 mph - N/A   Clear
9:53 PM 75.0 °F - 71.1 °F 87% 29.96 in 10.0 mi Calm Calm - N/A   Clear
10:53 PM 75.0 °F - 70.0 °F 84% 29.96 in 10.0 mi ESE 3.5 mph - N/A   Clear
11:53 PM 75.0 °F - 70.0 °F 84% 29.96 in 9.0 mi Calm Calm - N/A   Clear